Torna al catalogo

ONEWEB-0668

AttivoComunicazioniPO
NORAD 56711·PAYLOAD·🇬🇧 United Kingdom

Lanciato May 20, 2023 da Vandenberg Space Force Base

Loading…

Prossimi Passaggi (prossime 24 ore)

TLE

AggiornatoSource: CelesTrak SupGP

Epoca: Sep 14, 2026, 21:14 UTC

1 56711C 23068B   26257.88490001 -.00000180  00000+0 -47199-3 0  2571
2 56711  87.9147 210.9625 0001702  92.0419 303.8466 13.16594005    13

Traccia ONEWEB-0668 in tempo reale con AllMySat

Download on the App Store